TimeCDT,TemperatureF,Dew PointF,Humidity,Sea Level PressureIn,VisibilityMPH,Wind Direction,Wind SpeedMPH,Gust SpeedMPH,PrecipitationIn,Events,Conditions,WindDirDegrees,DateUTC
12:58 AM,55.6,54.0,94,30.21,10.0,Calm,Calm,-,N/A,,Clear,20,2013-05-14 05:58:00
1:58 AM,54.0,53.4,98,30.20,10.0,ENE,2.3,-,N/A,,Clear,60,2013-05-14 06:58:00
2:58 AM,54.0,52.3,94,30.21,10.0,Calm,Calm,-,N/A,,Clear,0,2013-05-14 07:58:00
3:58 AM,52.5,52.2,99,30.22,10.0,NNE,2.3,-,N/A,,Clear,20,2013-05-14 08:58:00
4:58 AM,53.2,51.8,95,30.23,10.0,Calm,Calm,-,N/A,,Clear,10,2013-05-14 09:58:00
5:58 AM,52.0,51.6,99,30.26,10.0,Calm,Calm,-,N/A,,Clear,50,2013-05-14 10:58:00
6:58 AM,57.0,55.6,95,30.27,10.0,Calm,Calm,-,N/A,,Clear,10,2013-05-14 11:58:00
7:58 AM,64.9,53.2,66,30.29,10.0,NNE,3.5,-,0.00,,Clear,30,2013-05-14 12:58:00
8:58 AM,69.3,53.1,56,30.29,10.0,ENE,5.8,-,N/A,,Clear,70,2013-05-14 13:58:00
9:58 AM,72.5,54.9,54,30.30,10.0,ENE,4.6,-,0.00,,Light Drizzle,60,2013-05-14 14:58:00
10:58 AM,74.7,56.7,53,30.31,10.0,Variable,5.8,-,N/A,,Clear,0,2013-05-14 15:58:00
11:58 AM,75.9,58.3,54,30.30,10.0,SW,8.1,-,N/A,,Clear,220,2013-05-14 16:58:00
12:58 PM,74.5,58.6,58,30.28,10.0,WSW,12.7,-,N/A,,Clear,240,2013-05-14 17:58:00
1:58 PM,75.4,59.7,58,30.25,10.0,SW,11.5,-,0.00,,Clear,220,2013-05-14 18:58:00
2:58 PM,76.3,60.4,58,30.22,10.0,SW,11.5,-,0.00,,Clear,230,2013-05-14 19:58:00
3:58 PM,75.6,60.4,59,30.21,10.0,West,10.4,-,N/A,,Clear,260,2013-05-14 20:58:00
4:58 PM,75.2,59.9,59,30.19,10.0,WSW,6.9,-,0.00,,Clear,250,2013-05-14 21:58:00
5:58 PM,74.1,61.2,64,30.19,10.0,WSW,10.4,-,0.00,,Clear,240,2013-05-14 22:58:00
6:58 PM,71.6,61.3,70,30.19,10.0,WSW,6.9,-,N/A,,Clear,240,2013-05-14 23:58:00
7:58 PM,69.3,59.7,72,30.20,10.0,SSW,4.6,-,N/A,,Clear,210,2013-05-15 00:58:00
8:58 PM,68.2,59.4,73,30.21,10.0,SW,4.6,-,N/A,,Clear,220,2013-05-15 01:58:00
9:58 PM,67.1,59.9,78,30.22,10.0,SSW,3.5,-,N/A,,Clear,210,2013-05-15 02:58:00
10:58 PM,61.3,58.6,91,30.22,10.0,Calm,Calm,-,0.00,,Light Drizzle,10,2013-05-15 03:58:00
11:58 PM,60.4,58.8,94,30.21,10.0,Calm,Calm,-,0.00,,Light Drizzle,0,2013-05-15 04:58:00